FW2021 Weather Reports


time (UTC)temp
C
wind
direction
speed
KPH
gust
KPH
rain 1hr
cm
rain 24hr
cm
rain mn
cm
humidity
%
barometer
mb
20260505091350 11 140 3.2 8.0 0.00 0.00 0.00 74 1013.5
20260505090848 11 156 3.2 9.7 0.00 0.00 0.00 75 1013.3
20260505090348 11 138 1.6 9.7 0.00 0.00 0.00 74 1013.5
20260505085848 11 168 3.2 11.3 0.00 0.00 0.00 74 1013.3
20260505085348 11 161 3.2 11.3 0.00 0.00 0.00 74 1013.3
20260505084848 11 177 1.6 11.3 0.00 0.00 0.00 74 1013.3
20260505084345 11 162 1.6 8.0 0.00 0.00 0.00 74 1013.3
20260505083846 11 132 1.6 8.0 0.00 0.00 0.00 74 1013.2
20260505083346 11 218 1.6 8.0 0.00 0.00 0.00 74 1013.3
20260505082345 11 159 3.2 9.7 0.00 0.00 0.00 74 1013.2
20260505081847 11 175 3.2 9.7 0.00 0.00 0.00 74 1013.2
20260505081345 11 181 1.6 9.7 0.00 0.00 0.00 74 1013.3
20260505080846 11 155 1.6 6.4 0.00 0.00 0.00 74 1013.2
20260505080344 12 133 1.6 11.3 0.00 0.00 0.00 74 1013.2
20260505075844 12 190 1.6 11.3 0.00 0.00 0.00 74 1013.2
20260505075344 12 128 1.6 11.3 0.00 0.00 0.00 74 1013.2
20260505074844 12 134 1.6 11.3 0.00 0.00 0.00 74 1013.1
20260505074343 12 169 1.6 4.8 0.00 0.00 0.00 74 1013.1
20260505073844 12 129 1.6 4.8 0.00 0.00 0.00 74 1013.0
20260505073345 12 136 1.6 9.7 0.00 0.00 0.00 73 1012.8
20260505072844 12 214 1.6 9.7 0.00 0.00 0.00 73 1012.8
20260505072343 12 186 3.2 11.3 0.00 0.00 0.00 73 1012.8
20260505071842 12 209 3.2 12.9 0.00 0.00 0.00 74 1012.7
20260505071342 12 184 1.6 12.9 0.00 0.00 0.00 74 1012.8
20260505070842 12 140 1.6 9.7 0.00 0.00 0.00 74 1012.7
20260505070342 12 190 1.6 9.7 0.00 0.00 0.00 74 1012.7
20260505065840 12 113 0.0 9.7 0.00 0.00 0.00 74 1012.7
20260505065340 12 161 1.6 6.4 0.00 0.00 0.00 74 1012.6
20260505064838 12 178 3.2 14.5 0.00 0.00 0.00 74 1012.5
20260505064335 12 173 3.2 14.5 0.00 0.00 0.00 74 1012.4
20260505063834 12 219 1.6 11.3 0.00 0.00 0.00 74 1012.4
20260505063328 12 232 1.6 11.3 0.00 0.00 0.00 74 1012.3
20260505062828 12 175 1.6 8.0 0.00 0.00 0.00 74 1012.4
20260505061827 13 146 1.6 6.4 0.00 0.00 0.00 74 1012.3
20260505061329 13 163 1.6 8.0 0.00 0.00 0.00 74 1012.1
20260505060828 13 106 1.6 9.7 0.00 0.00 0.00 74 1012.1
20260505060328 13 81 1.6 9.7 0.00 0.00 0.00 74 1012.0
20260505055328 13 135 3.2 11.3 0.00 0.00 0.00 74 1012.0
20260505054324 13 130 1.6 9.7 0.00 0.00 0.00 74 1012.0
20260505053824 13 133 1.6 4.8 0.00 0.00 0.00 74 1011.8
20260505053323 13 138 1.6 8.0 0.00 0.00 0.00 73 1011.8
20260505052823 13 129 1.6 9.7 0.00 0.00 0.00 73 1011.8
20260505052322 13 140 1.6 11.3 0.00 0.00 0.00 73 1011.9
20260505051822 13 192 1.6 11.3 0.00 0.00 0.00 73 1011.8
20260505051323 14 163 1.6 9.7 0.00 0.00 0.00 72 1011.7
20260505041316 16 142 1.6 8.0 0.00 0.00 0.00 68 1010.9
20260505040816 16 161 1.6 8.0 0.00 0.00 0.00 67 1010.9
20260505040317 16 150 1.6 8.0 0.00 0.00 0.00 66 1010.7
20260505035816 16 202 1.6 6.4 0.00 0.00 0.00 66 1010.7
20260505034816 17 150 1.6 8.0 0.00 0.00 0.00 65 1010.5
20260505034316 17 248 1.6 9.7 0.00 0.00 0.00 64 1010.4
20260505032815 18 208 1.6 11.3 0.00 0.00 0.00 62 1010.3
20260505032316 18 178 1.6 8.0 0.00 0.00 0.00 62 1010.3
20260505031314 18 182 1.6 9.7 0.00 0.00 0.00 61 1010.1
20260505030814 19 190 1.6 11.3 0.00 0.00 0.00 60 1010.1
20260505030313 19 175 1.6 11.3 0.00 0.00 0.00 60 1010.0
20260505025812 20 243 1.6 6.4 0.00 0.00 0.00 59 1010.0
20260505025313 20 149 3.2 8.0 0.00 0.00 0.00 58 1010.0
20260505024808 20 233 3.2 16.1 0.00 0.00 0.00 57 1009.9
20260505024307 20 168 3.2 16.1 0.00 0.00 0.00 56 1009.8
20260505023808 21 204 1.6 11.3 0.00 0.00 0.00 56 1009.8
20260505023307 21 144 1.6 11.3 0.00 0.00 0.00 55 1009.7
20260505022808 21 147 1.6 9.7 0.00 0.00 0.00 54 1009.7
20260505022307 21 178 1.6 9.7 0.00 0.00 0.00 54 1009.7
20260505021808 21 193 3.2 8.0 0.00 0.00 0.00 53 1009.7
20260505021309 22 180 1.6 8.0 0.00 0.00 0.00 52 1009.8
20260505020809 22 181 1.6 11.3 0.00 0.00 0.00 51 1009.8
20260505020307 22 230 1.6 12.9 0.00 0.00 0.00 50 1009.7
20260505015808 22 117 1.6 12.9 0.00 0.00 0.00 50 1009.7
20260505014805 22 162 1.6 8.0 0.00 0.00 0.00 51 1009.7
20260505014305 23 207 1.6 8.0 0.00 0.00 0.00 51 1009.7
20260505013758 23 196 1.6 11.3 0.00 0.00 0.00 51 1009.7
20260505013300 23 149 3.2 11.3 0.00 0.00 0.00 50 1009.7
20260505012759 23 182 3.2 8.0 0.00 0.00 0.00 50 1009.7
20260505012259 23 136 3.2 9.7 0.00 0.00 0.00 50 1009.7
20260505011256 23 192 1.6 8.0 0.00 0.00 0.00 49 1009.7
20260505010755 24 144 1.6 11.3 0.00 0.00 0.00 49 1009.8
20260505010257 24 163 3.2 11.3 0.00 0.00 0.00 49 1009.8
20260505005756 24 175 3.2 11.3 0.00 0.00 0.00 48 1009.8
20260505005255 24 211 1.6 11.3 0.00 0.00 0.00 48 1009.8
20260505003755 25 158 1.6 6.4 0.00 0.00 0.00 47 1009.8
20260505003255 25 244 1.6 3.2 0.00 0.00 0.00 46 1009.8
20260505002255 26 196 1.6 6.4 0.00 0.00 0.00 44 1009.8
20260505001755 26 119 1.6 6.4 0.00 0.00 0.00 44 1009.8
20260505001255 26 170 1.6 8.0 0.00 0.00 0.00 44 1009.9
20260505000753 26 234 1.6 8.0 0.00 0.00 0.00 43 1009.9
20260505000247 26 308 1.6 6.4 0.00 0.00 0.00 43 1010.0
20260504235235 26 211 1.6 4.8 0.00 0.00 0.00 43 1009.9
20260504234729 26 132 1.6 6.4 0.00 0.00 0.00 43 1010.0
20260504233717 26 161 1.6 8.0 0.00 0.00 0.00 42 1009.9
20260504233215 26 113 1.6 8.0 0.00 0.00 0.00 42 1009.9
20260504232714 26 245 3.2 8.0 0.00 0.00 0.00 42 1009.9
20260504232213 26 175 3.2 11.3 0.00 0.00 0.00 42 1009.9
20260504231713 26 151 1.6 11.3 0.00 0.00 0.00 42 1009.8
20260504231213 26 186 1.6 6.4 0.00 0.00 0.00 44 1009.9
20260504230216 26 222 3.2 9.7 0.00 0.00 0.00 42 1010.0
20260504225711 26 222 1.6 9.7 0.00 0.00 0.00 42 1010.1
20260504225213 26 154 1.6 6.4 0.00 0.00 0.00 44 1010.2
20260504224711 26 132 1.6 6.4 0.00 0.00 0.00 44 1010.3
20260504223712 26 119 1.6 6.4 0.00 0.00 0.00 45 1010.4
20260504222708 26 188 1.6 6.4 0.00 0.00 0.00 45 1010.5
20260504221704 25 317 1.6 4.8 0.00 0.00 0.00 43 1010.6
20260504221203 25 90 1.6 3.2 0.00 0.00 0.00 49 1010.6
20260504220703 25 84 1.6 4.8 0.00 0.00 0.00 46 1010.6
20260504220203 25 175 1.6 4.8 0.00 0.00 0.00 46 1010.7
20260504215701 25 178 1.6 3.2 0.00 0.00 0.00 45 1010.7
20260504215202 25 162 1.6 3.2 0.00 0.00 0.00 47 1010.7
20260504214701 25 162 1.6 3.2 0.00 0.00 0.00 47 1010.9
20260504213658 25 270 1.6 8.0 0.00 0.00 0.00 48 1010.9
20260504213200 25 190 1.6 8.0 0.00 0.00 0.00 46 1011.0
20260504212201 25 124 3.2 9.7 0.00 0.00 0.00 47 1011.0
20260504211700 24 165 3.2 9.7 0.00 0.00 0.00 48 1011.1
20260504211159 24 138 3.2 9.7 0.00 0.00 0.00 48 1011.1
20260504210659 24 204 3.2 9.7 0.00 0.00 0.00 49 1011.1
20260504210159 23 177 3.2 9.7 0.00 0.00 0.00 49 1011.2
20260504205700 24 292 3.2 9.7 0.00 0.00 0.00 49 1011.1
20260504204659 23 215 1.6 8.0 0.00 0.00 0.00 49 1011.2
20260504204200 23 214 1.6 8.0 0.00 0.00 0.00 50 1011.3
20260504203657 23 230 1.6 9.7 0.00 0.00 0.00 50 1011.3
20260504203155 23 190 1.6 9.7 0.00 0.00 0.00 50 1011.3
20260504202653 23 244 1.6 8.0 0.00 0.00 0.00 50 1011.4
20260504202153 23 248 1.6 8.0 0.00 0.00 0.00 51 1011.2
20260504201653 23 169 3.2 9.7 0.00 0.00 0.00 51 1011.2
20260504201154 23 84 3.2 9.7 0.00 0.00 0.00 50 1011.2
20260504200651 23 250 1.6 8.0 0.00 0.00 0.00 50 1011.2
20260504195651 23 157 3.2 11.3 0.00 0.00 0.00 52 1011.2
20260504194647 23 190 1.6 8.0 0.00 0.00 0.00 53 1011.3
20260504194146 23 171 1.6 8.0 0.00 0.00 0.00 53 1011.4
20260504193646 22 200 3.2 9.7 0.00 0.00 0.00 52 1011.4
20260504193144 22 141 3.2 9.7 0.00 0.00 0.00 54 1011.4
20260504191643 22 169 1.6 9.7 0.00 0.00 0.00 52 1011.5
20260504191143 22 163 1.6 9.7 0.00 0.00 0.00 53 1011.5
20260504190642 22 97 1.6 8.0 0.00 0.00 0.00 53 1011.6
20260504190141 22 157 3.2 14.5 0.00 0.00 0.00 54 1011.5
20260504185640 21 176 4.8 14.5 0.00 0.00 0.00 53 1011.5
20260504185140 21 142 4.8 11.3 0.00 0.00 0.00 53 1011.6
20260504184642 21 194 4.8 11.3 0.00 0.00 0.00 53 1011.6
20260504184141 22 150 3.2 11.3 0.00 0.00 0.00 52 1011.6
20260504183641 21 161 3.2 11.3 0.00 0.00 0.00 53 1011.6
20260504183140 21 151 3.2 11.3 0.00 0.00 0.00 54 1011.7
20260504182641 21 205 3.2 8.0 0.00 0.00 0.00 54 1011.7
20260504182141 21 144 3.2 8.0 0.00 0.00 0.00 54 1011.6
20260504181642 21 189 3.2 8.0 0.00 0.00 0.00 54 1011.7
20260504181141 21 138 3.2 8.0 0.00 0.00 0.00 53 1011.7
20260504180642 21 171 1.6 8.0 0.00 0.00 0.00 54 1011.7
20260504175642 20 124 1.6 8.0 0.00 0.00 0.00 54 1011.8
20260504175140 20 142 1.6 6.4 0.00 0.00 0.00 55 1011.8
20260504174643 20 143 3.2 11.3 0.00 0.00 0.00 55 1011.8
20260504174141 20 182 3.2 11.3 0.00 0.00 0.00 54 1011.8
20260504173139 20 146 3.2 8.0 0.00 0.00 0.00 54 1011.7
20260504172639 20 185 3.2 8.0 0.00 0.00 0.00 53 1011.7
20260504172137 20 169 1.6 6.4 0.00 0.00 0.00 54 1011.6
20260504171137 20 181 1.6 8.0 0.00 0.00 0.00 53 1011.6
20260504170635 20 112 1.6 6.4 0.00 0.00 0.00 53 1011.7
20260504170135 20 144 1.6 6.4 0.00 0.00 0.00 54 1011.6
20260504160132 18 168 1.6 6.4 0.00 0.00 0.00 54 1011.4
20260504151113 15 162 1.6 3.2 0.00 0.00 0.00 64 1011.0
20260504150608 15 161 1.6 9.7 0.00 0.00 0.00 65 1011.0
20260504140549 12 100 0.0 0.0 0.00 0.00 0.00 72 1010.5
20260504130503 12 103 0.0 0.0 0.00 0.00 0.00 72 1010.0
20260504100424 13 102 0.0 0.0 0.00 0.00 0.00 63 1009.8